GFSSE_prec_cthk_000.txt.gz
RH
90 87 88 83 80 77 79 81 81 81 74 70 67 61 55 50 47 45 42 41 42 42 35 36 39 45 49 54 55 68 69 64 64 54 47 29 28 31 39 43 35 28 34
87 84 83 76 79 78 76 75 75 69 63 61 59 53 46 42 42 41 40 39 38 36 38 40 39 42 47 54 54 63 76 75 67 61 44 28 27 38 33 38 45 22 40
86 83 81 77 77 74 69 63 65 62 56 51 50 47 45 42 41 39 38 37 35 39 40 40 41 42 47 55 57 60 71 78 76 70 50 31 25 37 34 30 43 40 48
79 78 76 74 69 63 59 55 57 53 49 48 47 45 44 45 45 46 49 46 44 44 44 44 45 46 47 52 58 63 70 75 70 75 62 42 25 27 32 30 35 33 51
72 72 71 64 58 53 53 51 51 49 50 49 48 47 47 49 49 51 54 55 54 51 49 48 48 50 53 51 56 68 71 72 75 75 73 53 32 25 28 29 34 28 42
63 61 58 55 52 52 53 51 51 50 51 50 49 50 50 50 51 53 56 56 56 57 58 54 51 49 54 53 54 62 63 70 77 75 78 62 41 30 32 27 31 29 32
60 57 54 54 52 50 51 49 46 46 48 49 52 53 53 55 58 62 64 62 58 56 58 60 59 54 50 54 54 52 55 63 65 71 78 71 50 35 38 28 31 39 32
57 57 55 51 50 50 49 48 46 47 47 52 58 58 58 58 61 65 67 67 69 60 59 60 58 56 57 53 56 59 53 58 63 67 72 75 62 36 35 31 28 30 41
57 55 53 48 48 49 49 49 48 49 52 56 59 60 60 64 66 68 72 68 66 64 62 60 58 63 54 53 61 64 60 62 64 68 72 78 72 48 34 30 27 29 32
52 49 48 47 46 51 52 52 51 52 55 56 58 60 65 65 66 63 73 66 61 61 66 65 70 71 72 66 66 66 70 70 66 68 70 74 75 61 32 37 37 29 34
48 47 47 47 47 47 50 51 54 50 54 56 55 58 63 67 66 62 67 68 68 65 74 72 68 69 72 72 70 71 70 68 65 65 71 68 72 76 47 37 38 32 32
44 45 46 46 49 51 53 53 53 57 53 52 53 54 56 57 61 61 58 61 61 64 72 70 75 77 69 66 64 65 72 72 67 61 67 70 70 79 73 32 43 39 39
42 46 48 46 47 46 45 45 48 48 48 49 50 50 53 58 60 61 60 59 59 58 57 56 63 64 64 63 63 61 57 62 74 73 67 63 73 70 82 74 38 44 42
39 43 45 43 43 47 47 49 49 50 47 44 46 48 56 59 63 60 59 57 55 50 48 46 46 48 47 44 41 41 45 52 62 66 77 64 64 72 74 88 74 44 42
37 35 37 39 38 40 44 46 52 50 50 51 50 49 58 64 65 66 58 56 54 50 47 45 43 41 39 38 36 34 33 33 45 57 65 79 65 67 67 70 84 70 46
36 35 34 33 34 37 48 51 52 52 50 51 50 51 50 58 56 57 57 53 52 49 45 45 43 41 40 35 31 29 26 23 23 32 50 63 78 75 70 67 77 85 62
33 34 34 36 52 40 42 51 50 47 46 49 51 50 49 50 49 51 57 52 51 44 43 43 42 39 35 30 23 22 23 21 19 18 24 39 56 71 79 70 69 77 87
33 33 36 38 40 41 36 39 38 40 37 40 47 48 50 48 44 48 57 56 49 47 46 43 40 36 30 24 19 19 20 18 18 17 15 17 27 43 63 79 72 72 81
33 34 34 37 37 35 46 35 36 37 37 36 40 42 42 41 42 43 43 46 44 44 39 32 29 26 24 22 21 23 24 23 19 19 23 22 20 24 32 60 78 75 75
32 33 33 33 34 42 40 37 41 35 36 35 36 46 40 38 38 38 48 56 45 33 27 23 20 22 22 22 23 26 27 27 26 22 24 28 29 28 25 30 59 79 81
32 33 32 32 35 38 30 29 31 31 33 35 34 36 35 36 35 34 37 39 26 24 20 19 19 19 20 22 27 30 30 30 30 30 29 29 30 32 34 33 33 46 70
29 28 30 31 32 29 26 26 28 31 32 32 30 29 28 30 30 28 26 24 20 17 15 16 16 20 22 26 28 27 29 33 34 34 33 32 31 32 34 36 38 39 38
27 26 27 28 28 24 23 24 26 27 24 22 22 21 23 23 23 25 21 17 13 15 18 20 19 22 26 27 28 26 26 29 29 33 34 33 31 30 32 33 36 40 43
26 28 28 28 25 25 25 24 24 23 23 22 21 20 18 17 20 18 14 14 17 19 21 22 21 24 26 27 27 27 28 28 30 31 32 32 30 30 30 31 33 36 39
29 29 28 26 24 28 29 28 27 24 25 26 25 25 24 25 24 19 15 17 18 21 22 21 22 23 25 27 30 31 29 30 31 30 28 28 29 28 28 29 29 30 33
30 29 27 28 27 31 34 33 31 28 26 25 25 25 24 27 27 25 19 20 22 21 21 21 22 24 27 31 32 30 31 32 32 33 33 32 33 32 31 29 26 25 26

GFSSE_prec_cthk_003.txt.gz
RH
88 86 81 79 79 84 84 84 74 68 65 61 55 52 49 49 49 45 42 43 41 36 37 40 44 50 52 56 67 77 74 64 63 46 33 30 35 38 36 36 33 51 33
82 79 74 75 77 85 85 79 72 68 61 56 52 49 48 47 44 42 41 38 36 37 40 40 45 51 57 56 60 67 84 74 68 60 34 28 37 35 38 39 25 46 50
77 75 74 74 73 74 75 71 65 60 56 52 51 48 44 41 40 38 39 37 40 40 42 43 44 49 57 56 63 69 77 75 78 68 44 26 37 50 32 44 46 43 59
75 74 71 69 64 67 70 66 60 54 51 50 47 45 44 45 47 50 49 45 45 46 45 49 47 47 54 57 65 73 76 71 75 76 53 36 34 31 32 35 37 46 37
71 67 62 60 60 61 63 60 54 51 50 48 47 47 48 49 50 54 55 56 56 52 49 50 50 50 51 54 62 69 70 78 74 74 61 40 33 34 24 33 28 46 37
62 57 53 55 58 58 59 56 52 51 47 47 48 48 48 50 54 57 57 58 57 57 59 55 52 53 52 54 56 58 64 71 70 74 72 52 36 30 26 27 32 36 38
55 53 52 54 55 52 53 53 51 49 47 48 51 52 53 55 60 65 67 66 60 58 59 58 57 54 51 53 59 57 57 71 65 74 72 66 42 36 40 25 34 33 29
56 55 53 54 50 51 47 48 48 49 51 53 54 54 58 63 64 68 64 70 65 61 60 60 58 59 55 49 60 59 59 64 69 69 71 70 55 35 34 28 31 42 35
56 53 53 52 51 50 47 45 47 48 51 55 56 60 62 65 66 67 73 69 66 64 65 65 68 70 60 54 62 63 62 62 70 78 74 77 66 40 38 31 27 27 38
55 52 50 52 53 49 50 49 49 51 55 56 59 65 65 63 61 62 72 66 61 66 75 68 70 71 73 70 68 71 67 66 64 60 70 74 70 61 32 36 34 28 36
52 51 50 47 48 50 53 53 51 52 55 54 56 59 60 62 62 62 62 64 66 65 74 74 71 76 72 68 65 63 65 69 66 62 65 70 68 76 49 42 38 34 31
48 48 47 49 48 52 52 51 52 50 51 51 51 51 55 57 60 64 62 61 60 58 62 60 62 65 66 65 62 58 55 56 64 67 61 65 72 75 76 42 43 39 37
45 49 47 45 45 46 46 52 50 46 45 45 46 50 54 56 61 60 58 55 54 54 53 47 47 48 48 43 39 37 39 42 47 60 72 66 66 73 75 78 45 44 43
42 45 44 43 44 47 48 48 49 46 45 46 48 52 51 58 64 62 59 54 55 52 47 44 41 37 36 36 36 33 29 26 29 49 57 71 62 64 70 83 83 55 47
39 41 42 40 40 42 42 46 47 46 47 48 47 50 54 62 63 58 57 54 53 51 47 42 40 39 38 37 34 29 24 22 20 24 41 57 74 63 67 70 79 77 60
35 35 35 32 37 43 45 44 43 45 45 47 46 46 48 55 55 61 53 53 46 46 41 39 38 39 37 35 31 25 19 19 19 17 20 32 55 72 71 71 72 84 76
33 33 33 33 34 37 40 40 43 41 41 43 45 48 48 53 50 53 57 52 47 42 40 40 40 38 34 29 25 19 18 18 17 15 15 19 28 47 66 75 72 75 83
32 32 32 37 34 40 36 38 44 41 42 42 44 49 51 53 51 46 49 51 43 39 39 39 37 29 26 23 22 23 23 22 21 17 16 15 16 24 40 58 73 77 79
31 31 31 33 34 37 39 40 35 37 38 37 35 38 47 39 40 41 45 47 46 45 38 35 30 24 19 21 21 23 23 24 23 21 21 24 23 20 21 31 51 71 76
30 31 31 32 33 42 44 45 44 40 42 35 34 37 38 43 43 34 35 37 44 45 36 24 24 21 21 20 19 25 26 26 27 26 24 25 27 29 29 23 28 45 69
31 30 30 30 31 42 34 33 31 33 32 35 33 38 40 40 35 37 36 32 33 28 22 20 19 19 22 18 19 28 27 28 29 30 31 29 28 27 29 32 31 30 37
31 30 30 29 30 36 33 30 28 27 26 27 26 27 26 27 28 31 26 23 20 18 15 15 17 22 22 22 26 25 30 32 33 29 30 30 29 29 29 31 33 36 38
29 28 28 27 26 28 27 26 25 25 23 24 26 27 27 29 29 24 20 20 15 11 16 17 19 20 28 29 26 26 27 31 29 31 30 27 26 26 27 29 31 33 36
25 27 29 29 26 24 25 26 25 24 25 28 29 28 26 26 22 20 22 15 13 15 15 17 17 19 22 27 24 25 25 28 32 32 32 31 30 29 27 26 28 30 32
24 25 28 29 27 26 26 27 27 27 29 30 26 24 24 24 23 25 21 15 17 18 18 18 18 18 19 22 27 30 28 26 27 32 33 34 33 32 31 30 27 26 27
35 28 27 27 26 27 28 29 29 30 30 29 27 26 28 28 27 27 25 22 22 20 21 18 19 19 21 24 32 30 31 33 35 33 34 34 33 35 33 34 32 30 27

GFSSE_prec_cthk_006.txt.gz
RH
84 82 86 86 83 83 79 69 68 63 60 54 48 46 47 47 46 45 43 42 36 36 40 45 50 52 59 65 68 77 66 70 51 34 32 39 41 40 33 36 56 50 37
86 83 83 83 84 78 74 68 65 60 55 51 48 46 46 47 44 42 42 36 36 39 40 44 52 56 57 62 68 77 82 78 72 49 35 46 46 44 44 30 50 54 38
80 77 78 84 79 75 71 70 60 55 52 49 46 45 45 41 39 39 37 38 39 41 42 43 50 57 57 63 73 74 76 83 78 58 39 49 52 46 47 52 48 71 66
76 73 72 72 72 69 64 60 56 53 52 49 44 43 44 45 45 45 42 45 47 46 47 45 47 54 59 60 70 73 74 78 80 68 52 46 45 31 36 53 47 52 37
70 68 61 64 65 64 61 55 54 52 49 46 45 44 45 47 50 53 54 55 54 50 49 49 48 50 55 59 61 69 73 77 74 77 60 44 50 28 31 31 46 40 44
63 64 59 60 63 62 57 53 51 48 46 47 46 46 47 48 52 54 55 56 55 54 52 51 51 50 51 55 57 60 68 70 77 81 72 51 45 37 25 35 40 40 54
56 60 62 62 60 60 54 50 47 46 46 46 47 48 51 56 63 64 68 61 57 55 56 55 54 53 50 53 58 59 62 70 72 80 85 74 47 40 29 35 31 33 40
58 60 59 58 58 55 51 49 46 47 48 49 50 54 58 59 64 64 63 69 62 59 59 59 58 60 50 50 59 59 62 66 76 82 82 84 52 36 30 29 41 40 38
59 58 57 56 50 48 48 49 49 50 51 52 55 57 58 62 65 70 73 66 63 63 69 72 68 69 65 58 65 65 62 59 67 74 77 82 70 40 38 28 29 36 36
58 56 57 57 52 50 48 49 50 51 52 55 58 60 59 59 60 60 67 63 61 66 73 71 65 65 70 67 64 64 66 72 75 71 76 74 71 63 35 35 29 30 39
56 56 56 56 56 55 51 48 48 50 51 54 57 55 58 67 65 64 58 59 60 58 66 63 67 68 64 65 60 55 55 64 68 74 71 69 69 70 52 41 35 31 34
55 52 53 57 60 57 57 55 52 52 52 53 52 55 59 62 61 58 57 53 53 50 50 48 46 50 57 59 52 49 52 47 53 63 75 60 68 73 72 46 44 37 35
52 52 54 51 52 52 55 54 51 51 51 49 51 52 58 56 59 60 58 54 50 48 52 48 44 45 39 37 36 36 34 34 38 49 63 71 61 70 72 70 55 43 41
52 52 48 49 50 53 55 54 52 51 52 53 54 50 56 58 60 58 59 56 49 53 50 47 46 41 40 39 38 36 33 27 29 30 50 56 69 61 67 78 78 67 46
47 48 49 46 44 44 46 50 51 53 51 51 52 51 52 57 66 61 62 60 52 50 48 46 44 41 40 42 39 34 30 27 21 22 28 39 57 69 66 69 75 78 70
44 44 45 42 42 44 44 46 45 48 51 51 52 47 44 49 72 66 60 55 50 47 44 42 39 39 40 39 35 30 24 23 22 21 23 27 34 55 66 70 71 78 78
39 40 38 39 42 45 43 44 42 47 47 48 48 45 48 60 61 57 62 55 53 49 39 39 42 40 36 32 30 28 29 29 28 22 22 26 29 33 50 63 69 72 82
36 36 36 39 41 37 41 38 41 45 45 45 48 53 59 59 52 52 55 53 53 45 46 44 44 34 35 34 33 32 31 30 30 28 28 24 26 27 37 48 59 64 68
35 36 34 36 36 33 39 42 39 42 51 55 47 47 48 45 48 49 49 48 48 53 58 53 45 28 28 29 32 32 34 31 32 36 30 32 32 32 30 34 39 54 64
33 34 32 31 32 33 42 52 55 51 47 45 40 42 40 50 45 48 46 42 39 45 45 40 28 28 26 26 24 30 31 33 34 38 37 33 29 34 36 31 32 40 51
32 33 33 31 32 49 53 46 43 44 43 42 42 46 41 40 38 39 40 37 37 36 27 23 23 25 25 34 26 33 35 32 35 35 37 32 30 31 31 35 41 35 41
31 32 33 31 32 37 41 39 39 39 40 42 40 41 39 34 30 30 32 32 25 25 24 19 21 26 28 28 33 32 37 41 37 35 29 28 29 33 34 33 35 35 42
31 32 29 28 30 35 41 45 39 37 34 35 32 33 31 28 30 29 27 23 22 17 23 25 27 26 30 32 31 30 33 37 34 37 35 29 27 30 30 30 32 33 32
28 30 28 28 28 33 36 35 32 32 34 34 36 37 32 27 27 26 24 22 16 22 23 26 23 24 23 34 32 29 25 28 35 39 42 35 33 33 30 32 33 32 28
32 31 25 24 26 29 31 29 31 30 36 35 34 34 32 32 28 25 26 21 19 21 25 22 21 22 28 28 32 36 35 32 31 35 38 43 41 40 36 35 32 34 31
40 38 25 24 23 26 28 29 31 34 34 37 37 35 34 35 31 30 29 24 22 25 26 23 19 21 20 26 32 40 38 37 37 37 35 37 39 38 39 35 35 34 34

GFSSE_prec_cthk_009.txt.gz
RH
93 93 93 88 83 79 75 74 67 60 55 50 47 49 46 45 45 42 42 37 35 38 45 48 52 57 64 65 65 71 65 60 45 34 39 45 40 36 31 51 64 53 39
88 86 86 84 82 77 75 67 61 56 52 49 48 47 44 43 44 42 36 37 37 39 43 48 53 56 60 68 74 78 80 73 58 37 45 55 47 43 33 64 63 40 51
86 84 81 80 74 70 64 62 60 54 50 48 46 44 42 42 40 35 37 38 37 39 41 48 53 53 58 68 74 73 75 74 66 44 44 57 43 42 49 59 64 67 52
79 78 74 71 71 70 62 57 54 51 48 45 43 43 44 43 42 39 41 43 41 43 42 44 51 54 56 62 69 70 75 75 70 55 47 66 53 31 52 47 59 47 60
75 74 70 68 64 61 56 53 52 50 44 44 46 45 45 46 49 51 51 50 46 45 45 44 47 51 55 57 62 67 71 71 75 71 62 49 60 25 30 43 46 39 64
69 69 64 63 61 55 53 51 49 46 44 45 46 45 45 48 51 52 52 51 50 47 47 48 49 48 51 56 59 64 70 68 77 74 75 46 45 27 30 44 46 47 51
60 62 59 60 59 55 51 47 44 44 45 45 46 48 51 57 60 63 59 57 55 53 53 52 52 51 47 54 57 60 65 72 82 81 83 79 38 34 27 30 35 40 44
60 60 56 56 54 50 47 44 43 43 46 48 51 54 55 58 60 60 61 63 58 58 58 62 61 57 50 54 61 59 58 61 75 93 82 83 56 33 28 33 36 31 37
56 58 56 55 50 47 44 43 44 45 47 49 52 54 57 60 63 65 60 59 60 65 69 69 65 67 66 60 63 65 64 67 70 71 75 85 71 45 33 27 34 33 41
54 56 56 52 49 48 45 46 47 47 49 52 53 52 53 55 55 58 63 59 59 62 70 68 67 67 66 66 62 58 62 67 74 70 72 73 70 60 43 33 29 34 32
55 52 56 54 50 51 51 48 47 47 49 52 51 53 56 68 65 62 57 54 56 55 56 53 54 59 65 66 63 57 57 65 59 87 75 65 67 71 48 45 39 30 38
57 59 55 57 52 49 55 47 48 48 50 50 53 54 54 66 60 53 55 48 45 45 43 42 40 43 47 47 45 42 45 39 49 56 74 69 59 70 75 49 45 42 36
52 56 57 57 53 54 55 48 51 51 53 54 53 56 58 63 59 61 56 69 50 49 78 48 54 48 46 44 46 49 42 37 39 43 45 63 68 64 74 73 54 46 44
51 53 49 51 53 56 56 51 55 56 57 56 53 54 56 57 59 55 70 66 72 58 53 59 49 46 47 41 46 44 43 40 37 29 37 44 58 66 66 74 80 64 53
51 53 51 50 47 51 53 52 57 57 54 57 58 53 54 65 65 64 60 53 51 52 53 52 49 45 46 51 47 37 33 31 28 27 32 28 41 57 64 67 79 85 75
48 50 50 47 43 43 48 50 51 54 60 53 56 54 48 58 69 63 62 57 56 53 50 48 47 42 43 42 41 36 33 34 33 28 33 31 26 37 58 64 65 71 84
45 47 46 43 47 44 44 44 43 49 48 53 51 52 50 62 58 55 61 60 56 51 46 49 57 48 37 41 39 33 36 37 35 30 28 35 35 29 36 54 62 67 68
39 40 40 39 41 44 46 44 45 46 50 49 54 62 57 55 53 52 53 59 55 54 58 56 53 54 43 33 32 34 34 35 35 33 36 32 35 38 34 37 53 59 62
37 37 36 40 44 41 38 43 41 43 55 59 59 54 61 50 52 50 51 52 47 51 56 48 48 47 36 31 30 31 37 41 37 44 36 38 38 40 42 36 35 43 53
37 37 35 37 37 38 38 50 54 54 56 49 47 46 49 50 46 48 48 53 47 48 40 54 45 29 23 31 30 28 35 41 37 43 44 40 33 38 46 42 39 36 39
34 36 35 33 33 33 52 58 52 52 49 45 46 55 45 41 41 44 46 48 44 42 45 36 24 25 31 35 30 44 41 35 39 42 40 34 33 34 34 38 44 45 51
33 34 30 30 31 30 45 42 43 44 46 45 48 43 43 44 44 38 36 38 37 38 26 24 20 23 32 35 35 33 40 46 45 44 33 30 29 35 37 35 37 33 42
32 29 29 29 29 30 41 45 47 51 40 48 46 41 37 32 33 30 32 32 29 20 21 25 26 24 30 36 32 32 39 46 40 43 41 33 28 29 30 31 34 33 31
32 31 30 29 28 29 33 43 47 49 41 40 40 41 36 35 32 33 33 30 21 22 27 26 26 22 21 32 33 33 24 30 33 42 46 45 39 38 34 34 37 35 32
34 36 30 30 29 29 29 40 41 40 39 43 42 41 37 37 32 34 34 31 25 22 31 28 24 20 30 26 33 34 38 32 31 29 38 47 49 47 45 37 37 36 36
42 42 39 31 27 25 28 32 33 39 35 41 38 42 40 35 36 36 35 33 31 29 35 33 29 26 24 27 29 33 37 38 42 43 41 40 42 44 45 44 40 40 39

GFSSE_prec_cthk_015.txt.gz
RH
90 92 90 87 83 83 75 63 55 48 46 45 46 43 38 38 35 33 32 36 38 41 44 50 54 59 61 68 69 61 50 43 43 46 38 40 31 47 53 46 37 40 40
88 90 88 82 83 75 68 56 50 45 42 43 42 38 38 36 33 34 35 35 39 44 44 48 53 58 67 67 69 67 62 45 44 49 46 43 39 61 57 44 44 40 39
86 84 79 77 70 64 57 50 45 42 41 40 39 39 36 31 34 34 35 35 37 43 45 47 49 55 58 64 67 69 66 60 46 66 53 41 46 57 50 40 42 39 37
75 73 71 66 59 52 48 44 41 41 39 39 39 38 35 35 38 40 39 39 39 41 45 48 47 53 58 61 65 69 69 68 61 52 49 38 40 45 61 55 48 47 43
68 65 62 57 53 49 43 40 39 40 40 41 41 40 40 42 47 48 46 43 42 41 44 46 47 50 53 59 66 66 69 73 76 60 46 44 33 35 44 34 51 46 49
59 57 55 52 49 46 42 41 39 39 41 42 41 42 46 49 51 52 53 50 48 47 47 48 42 48 56 58 60 67 72 77 81 85 53 41 29 35 39 39 51 40 41
58 58 57 50 46 44 43 41 40 40 41 44 47 49 53 56 57 57 57 54 53 54 56 54 50 52 56 57 59 60 69 80 93 93 86 51 32 30 39 42 44 36 34
55 54 52 48 45 43 42 42 40 41 45 48 50 52 55 60 61 62 58 58 62 66 63 61 62 59 55 56 63 65 66 72 83 80 97 80 42 32 33 35 36 35 36
54 53 49 46 44 41 41 41 43 45 47 50 53 55 57 59 58 58 60 60 62 67 65 62 62 67 66 66 67 69 70 68 72 79 75 84 71 43 33 36 30 33 35
51 52 48 45 41 39 40 42 43 42 45 47 48 50 51 56 57 60 55 56 53 58 55 57 64 67 67 63 63 62 60 58 58 66 72 76 82 57 42 36 36 36 34
50 47 45 43 39 38 38 39 40 42 44 46 46 46 52 63 57 57 60 52 46 45 43 40 44 43 41 39 44 59 60 42 33 51 62 71 72 78 50 41 38 40 38
46 48 43 41 39 37 36 37 38 40 42 42 40 46 60 52 56 66 65 56 56 46 38 46 62 60 44 36 36 38 38 39 42 37 40 64 72 72 74 50 44 40 43
45 48 44 39 40 39 36 37 38 40 42 44 44 46 53 65 76 67 62 63 62 44 55 57 40 43 39 42 44 47 43 39 34 39 32 37 60 66 69 72 56 47 42
43 48 44 39 39 39 38 39 37 39 44 48 48 47 46 57 61 82 65 59 61 55 42 43 39 42 39 40 36 34 34 26 35 33 35 33 38 49 60 71 71 62 57
43 47 43 42 39 38 41 41 41 42 45 49 52 53 52 52 55 58 59 49 48 47 45 43 46 46 41 38 36 34 30 32 33 30 28 29 33 37 48 59 66 73 68
40 39 42 42 36 37 41 42 45 46 47 45 50 56 59 55 52 51 54 52 52 48 58 55 49 49 44 39 35 31 31 34 32 31 27 28 37 40 39 52 58 61 73
39 40 37 35 34 33 34 36 44 46 45 49 48 51 54 52 49 49 51 56 58 51 62 50 53 47 43 37 33 30 29 30 34 28 27 31 33 37 39 42 51 56 55
36 36 35 36 33 32 32 35 35 38 39 42 44 54 54 50 49 48 51 49 59 53 46 43 47 45 42 34 21 29 29 33 34 34 36 31 32 33 35 41 42 50 54
32 32 31 30 29 30 31 30 32 34 41 41 45 46 51 57 60 47 42 43 45 53 44 40 39 41 35 27 21 30 29 33 37 43 34 42 39 34 35 38 39 37 43
31 30 28 25 26 30 30 34 37 36 40 36 40 43 56 54 48 42 44 41 44 45 39 37 32 29 22 18 26 26 29 33 37 35 43 34 35 36 38 35 42 46 42
30 29 27 27 25 28 29 35 39 37 41 41 41 46 37 39 43 43 40 38 40 38 28 26 26 17 20 23 30 32 32 42 39 38 39 40 32 31 34 29 31 41 45
27 26 26 26 26 26 28 34 39 37 40 39 37 35 36 39 38 37 34 31 29 32 28 23 18 15 24 26 25 27 38 44 44 43 39 38 33 28 26 30 31 29 33
25 23 23 23 26 25 25 32 33 35 39 37 38 37 43 35 33 30 31 28 26 29 29 27 19 19 26 28 28 28 36 39 44 40 44 41 37 35 32 24 26 26 27
24 22 21 23 24 25 25 26 31 33 36 40 37 32 32 35 32 31 25 23 25 32 35 27 29 27 33 34 30 29 30 39 40 43 42 37 43 36 37 34 33 33 29
28 25 21 22 23 24 25 24 26 29 32 40 37 35 37 33 35 29 23 26 35 39 40 44 45 44 47 42 41 33 29 27 36 39 41 41 43 44 41 37 37 37 33
35 35 30 25 25 25 25 23 22 25 31 34 33 30 33 33 32 29 38 45 46 47 47 51 56 58 55 54 51 48 34 30 31 31 33 36 36 43 44 44 45 43 41

GFSSE_prec_cthk_021.txt.gz
RH
93 92 92 91 89 84 75 63 50 43 43 41 38 36 35 32 35 38 41 42 42 48 55 62 66 76 74 68 65 57 51 49 46 40 39 42 41 39 30 42 43 41 43
90 89 89 88 79 69 59 47 43 42 42 39 37 36 32 33 36 39 43 43 43 46 52 58 65 68 72 73 65 60 57 58 56 43 52 67 60 51 37 36 38 39 41
86 86 85 80 70 56 48 44 43 42 39 39 35 31 31 33 34 37 42 43 44 45 50 55 57 63 66 67 67 64 62 54 43 35 47 60 43 42 44 36 37 40 42
83 82 76 72 57 50 45 44 43 40 39 37 31 34 37 37 39 40 40 43 45 43 46 50 54 59 66 69 72 73 69 64 42 24 39 52 64 52 46 41 39 51 50
76 76 71 62 50 45 42 41 40 39 38 34 36 42 45 46 46 41 41 43 44 42 47 49 51 54 65 66 72 75 78 72 59 30 28 35 48 45 50 48 43 44 48
70 69 64 50 43 41 39 39 41 40 39 40 43 46 48 53 51 47 46 47 46 42 46 47 46 50 60 63 68 78 77 71 73 62 24 31 34 37 49 47 57 49 41
64 58 52 45 40 39 40 41 41 41 43 46 49 52 56 56 55 53 56 57 59 58 55 52 50 49 51 59 65 64 63 69 72 70 46 24 34 35 50 48 44 36 33
56 51 46 42 40 39 39 41 43 45 47 48 53 57 59 59 55 58 60 63 62 61 59 59 61 63 67 66 67 61 61 61 62 70 60 33 31 38 46 43 37 34 33
52 48 43 40 39 38 39 42 45 48 50 51 55 56 57 59 56 54 52 53 53 54 55 54 58 59 57 55 53 44 45 43 63 76 70 62 40 37 37 35 33 40 36
50 46 43 41 39 39 39 42 44 46 47 47 48 48 51 55 52 48 47 45 45 44 44 45 46 43 45 45 44 47 35 30 48 75 73 74 52 41 41 36 34 34 39
50 45 44 41 41 41 42 42 44 44 41 41 43 51 59 60 57 60 51 47 44 44 45 48 49 42 40 37 38 38 37 35 32 53 69 72 76 50 42 43 40 35 36
47 45 43 42 40 41 42 41 41 40 40 41 43 55 60 62 61 61 61 56 48 43 46 44 42 40 38 35 37 39 43 37 37 33 48 63 75 69 49 42 42 44 42
46 44 41 40 40 40 40 39 36 36 36 40 44 55 60 65 69 68 64 61 50 43 45 47 43 37 37 32 29 31 32 33 34 31 32 47 64 81 63 53 46 46 46
45 42 41 39 36 36 36 35 35 36 35 36 45 51 59 60 58 58 61 52 50 49 46 41 40 43 38 32 32 27 28 31 29 30 30 38 53 68 84 59 52 50 52
44 38 39 38 34 34 32 33 34 36 37 38 44 49 51 50 51 51 51 51 48 48 48 49 52 47 40 36 35 29 28 35 35 31 31 35 45 53 68 80 65 53 54
40 38 38 34 33 34 33 35 35 36 40 45 51 52 55 52 55 56 55 52 51 52 54 60 55 48 45 40 39 29 29 29 32 29 29 37 41 41 53 66 71 77 62
38 39 33 33 34 34 34 36 34 36 40 46 50 56 53 51 52 56 56 51 51 52 56 46 42 42 45 41 33 31 29 31 34 32 27 30 38 39 41 52 61 66 78
35 37 34 34 33 32 30 33 33 37 40 42 48 49 48 52 50 54 54 49 45 45 48 46 40 38 40 39 34 28 33 36 36 35 35 34 31 33 41 43 45 56 61
35 36 38 36 34 32 31 33 36 36 36 41 44 45 49 52 55 54 49 44 42 40 36 35 32 26 33 31 28 25 32 31 48 31 34 34 34 34 33 39 44 40 45
36 36 37 36 34 34 31 32 35 41 41 41 41 43 49 49 51 54 42 40 40 32 30 28 29 28 28 28 20 29 34 36 39 36 36 33 32 34 33 33 36 37 43
36 36 35 34 34 33 36 38 35 37 42 40 37 40 39 44 46 49 41 41 34 27 27 25 27 32 26 24 27 29 33 35 39 37 39 34 30 29 28 28 30 32 43
29 30 30 31 33 33 35 33 35 39 38 39 39 39 39 44 41 39 39 37 28 26 32 36 39 45 40 47 38 35 33 33 37 37 37 35 34 30 26 24 26 30 33
23 23 23 25 29 31 32 33 35 37 36 35 36 36 37 39 39 38 38 31 28 32 37 48 52 48 47 53 50 44 39 38 34 36 38 37 35 34 33 32 31 28 26
16 19 23 26 27 29 31 31 33 31 32 31 31 36 37 33 36 36 31 33 38 44 50 54 54 47 49 50 50 50 47 41 40 37 35 35 35 32 33 34 35 36 34
13 15 18 20 23 27 28 28 29 32 30 34 33 36 35 32 36 34 35 42 47 49 53 53 51 43 44 53 58 54 52 55 53 46 38 37 38 38 38 36 39 39 41
28 23 21 21 22 23 24 24 25 27 30 32 34 35 33 32 30 30 39 47 49 47 50 49 46 45 42 44 49 50 50 51 55 57 58 55 54 50 47 46 45 45 46

GFSSE_prec_cthk_024.txt.gz
RH
94 94 96 93 90 85 75 61 51 48 44 39 36 34 33 37 40 41 41 42 46 52 59 64 70 70 64 60 54 48 48 46 40 40 38 37 35 31 33 37 44 46 45
92 94 94 91 87 71 53 47 46 44 39 37 36 32 33 38 41 43 42 43 45 51 56 62 66 68 68 64 54 55 50 45 37 52 60 55 50 38 34 39 38 41 47
91 91 91 87 71 54 44 42 42 40 38 37 32 32 33 35 39 42 42 42 42 50 57 57 61 64 66 65 62 62 63 48 27 46 57 39 43 39 35 37 37 37 40
86 85 84 79 54 42 40 40 40 38 37 33 36 38 37 37 38 40 43 42 42 45 49 56 62 65 68 68 73 75 65 55 31 32 50 61 49 46 35 39 41 48 50
78 78 76 61 44 40 40 40 38 38 35 36 42 44 44 44 41 41 43 41 41 45 47 50 54 58 62 65 74 80 72 63 51 29 35 51 48 45 39 35 46 51 50
71 71 66 47 42 40 39 39 40 39 40 43 47 49 53 50 48 47 47 45 43 46 46 47 48 51 57 65 72 74 74 75 78 55 29 38 42 50 48 50 51 47 48
66 66 53 41 39 39 39 41 42 44 46 48 53 56 56 55 54 58 60 62 60 59 58 57 54 56 59 63 62 66 69 66 71 67 35 32 38 46 44 45 42 36 36
60 55 44 38 38 39 41 42 44 46 47 55 58 59 57 55 56 58 61 60 59 60 60 62 64 64 62 58 54 52 53 56 66 70 45 30 35 41 52 37 32 32 38
54 49 41 37 38 40 42 45 48 48 49 55 56 57 56 55 52 49 48 48 51 50 52 50 47 48 46 45 43 45 36 44 74 72 63 37 35 38 41 33 33 36 34
49 45 40 38 38 39 42 44 47 49 49 50 48 50 53 51 48 46 44 42 44 47 46 44 49 48 43 39 40 37 37 38 72 72 71 53 45 45 41 35 37 37 38
45 41 38 38 39 39 40 43 44 45 44 44 49 56 56 56 57 53 46 42 43 45 43 43 41 42 37 33 35 41 36 34 42 65 69 75 55 44 39 41 41 38 41
42 42 39 38 38 39 40 42 42 42 41 45 53 59 63 62 58 62 58 48 43 43 48 46 39 37 34 30 31 30 38 33 36 41 53 65 76 54 42 45 42 44 42
42 41 38 39 40 41 40 39 39 40 43 45 51 59 60 67 63 62 59 53 43 42 44 43 41 41 40 29 26 25 28 32 32 29 37 51 69 76 53 47 45 48 49
42 39 37 38 39 39 37 37 37 37 42 45 50 55 59 57 56 54 56 48 48 47 47 45 44 46 41 32 31 25 28 29 33 30 31 46 57 80 79 52 48 47 54
41 38 36 36 36 34 35 36 36 36 38 40 44 49 53 51 49 50 51 49 50 53 55 55 55 48 45 40 35 31 26 35 33 31 32 40 51 62 77 81 59 50 50
41 36 37 34 34 32 33 34 35 37 38 40 47 51 52 56 54 56 53 50 56 56 57 51 48 44 46 41 40 33 28 32 33 28 31 37 43 49 63 72 79 70 60
38 36 35 32 32 32 32 32 33 34 39 42 50 50 55 54 54 54 56 52 48 47 48 49 46 38 37 38 40 32 28 36 33 28 26 37 42 44 46 59 64 70 77
37 36 32 32 33 33 32 32 33 33 35 44 51 50 54 54 54 54 55 49 44 42 41 37 37 35 36 37 34 32 33 33 35 32 33 29 33 39 44 45 52 57 60
37 35 32 30 29 28 29 30 32 32 35 42 49 48 52 55 54 62 52 45 42 37 33 35 34 33 32 34 33 30 32 32 43 33 33 33 33 33 35 43 46 45 51
34 33 30 29 30 31 32 30 32 32 40 42 42 47 50 52 55 55 48 41 40 33 32 30 30 33 32 32 27 24 32 35 35 34 33 31 32 33 32 34 41 41 45
33 34 35 33 31 32 31 29 32 37 38 40 40 44 45 46 46 47 45 41 37 33 31 34 39 46 50 37 34 32 33 35 38 37 34 32 28 26 26 26 28 31 40
29 30 32 30 31 30 36 33 32 34 37 39 39 39 39 39 41 42 41 40 34 36 37 46 51 50 47 45 44 40 37 34 34 36 36 33 31 29 26 23 26 31 33
26 27 28 27 26 27 33 35 33 38 38 36 38 39 37 37 41 37 35 33 33 39 48 51 52 49 42 46 48 45 43 38 39 38 37 35 34 32 32 33 31 29 27
21 22 22 23 24 25 31 32 32 32 34 32 30 33 36 36 35 36 32 33 37 49 55 51 49 50 44 48 52 52 52 50 44 42 40 39 38 36 33 32 35 35 35
18 19 20 19 22 24 27 27 29 33 34 33 32 33 36 34 32 32 29 34 45 53 53 49 45 48 45 47 49 48 52 54 57 58 56 50 45 47 45 45 44 46 46
22 18 18 19 19 21 23 26 25 26 29 33 36 37 34 33 32 30 32 40 49 54 50 47 46 48 46 45 50 52 51 52 52 53 55 54 54 53 53 52 51 52 53

GFSSE_prec_cthk_027.txt.gz
RH
97 97 94 92 91 82 70 60 52 45 40 35 33 34 37 39 40 40 41 48 56 60 65 68 67 63 56 56 48 45 44 41 46 44 40 40 34 31 37 46 50 54 51
94 96 93 89 81 67 57 51 46 40 36 34 32 35 39 40 41 40 40 48 54 58 64 67 67 66 63 61 62 58 44 38 53 59 57 52 38 34 36 40 49 52 49
93 92 93 86 66 52 48 45 41 37 34 30 30 34 37 40 41 40 42 46 52 56 59 63 65 68 71 74 69 63 48 28 50 59 43 52 48 35 32 35 40 46 50
92 91 87 72 49 45 44 42 38 35 31 33 35 37 37 38 41 43 42 45 50 58 58 62 66 68 70 76 80 68 58 43 31 54 61 60 54 36 41 40 45 42 41
84 83 76 56 40 39 40 38 36 33 35 41 43 44 43 41 41 43 40 43 49 51 51 54 58 64 68 75 81 88 76 70 42 33 55 53 54 38 42 48 47 48 45
77 74 60 43 38 38 39 38 37 38 40 46 49 53 50 49 49 49 44 47 52 49 48 50 52 57 64 71 80 81 75 75 68 41 36 48 56 45 41 42 44 44 50
72 66 48 39 38 40 39 39 42 43 47 53 56 57 56 56 59 60 61 60 62 58 58 60 64 65 65 66 64 63 63 73 69 50 33 45 52 44 50 49 43 41 41
66 56 45 39 40 41 40 42 44 46 54 57 60 58 56 58 58 60 59 59 59 59 61 63 63 58 49 45 46 46 46 48 66 62 31 37 46 55 42 40 35 35 37
60 50 43 40 40 40 42 46 47 49 56 58 60 56 53 52 50 48 48 50 49 45 48 46 45 42 42 37 38 40 43 72 71 67 36 35 40 55 42 34 34 35 33
55 47 42 40 38 41 44 48 47 49 52 51 51 53 52 50 48 42 42 42 46 45 45 48 42 41 41 38 40 41 38 64 71 69 60 38 42 42 36 33 36 35 34
52 45 40 37 37 40 42 45 46 45 45 47 49 55 55 54 53 48 43 40 42 43 44 44 40 38 34 33 37 41 36 39 63 69 70 60 51 46 42 38 37 39 37
48 43 38 36 37 39 41 41 41 43 45 49 56 61 61 58 58 53 46 42 41 41 41 42 40 39 35 30 27 30 35 35 35 51 62 72 65 52 43 46 44 39 40
45 41 37 38 38 38 39 40 40 46 48 52 53 57 59 61 60 56 49 45 42 42 43 44 44 44 36 33 28 22 27 32 33 30 50 62 74 65 49 50 48 53 48
40 37 35 36 38 37 37 37 40 42 45 47 48 55 57 55 50 50 50 44 47 49 51 48 52 46 44 38 31 28 29 32 31 30 33 50 67 83 68 50 44 47 56
37 36 35 36 37 37 37 36 37 40 43 45 45 50 48 49 48 49 51 51 52 54 58 53 58 46 44 42 41 32 29 32 32 32 31 47 56 75 82 69 56 49 46
37 35 34 36 37 36 37 36 36 37 38 40 42 47 50 48 52 51 51 52 54 53 51 50 47 44 41 40 40 34 27 31 30 27 32 41 48 54 71 80 78 67 59
38 36 34 35 34 35 35 36 37 37 38 39 44 47 49 52 52 52 54 52 47 47 47 44 43 44 37 36 34 33 29 34 29 26 30 38 45 44 50 63 70 73 69
37 34 35 34 33 33 34 34 34 35 37 42 45 46 47 51 51 51 53 47 44 42 41 39 42 39 33 35 33 33 30 34 38 31 29 32 37 43 42 45 54 59 61
35 34 32 33 33 33 33 32 31 32 33 41 42 44 48 49 52 56 51 45 44 37 35 37 35 35 30 34 35 34 30 34 42 33 31 30 32 33 39 41 44 46 52
35 33 31 32 33 32 31 31 29 29 32 36 42 47 47 49 52 56 51 43 41 36 35 36 39 47 47 41 36 26 30 36 37 35 33 29 33 32 31 32 40 43 44
35 34 30 29 27 26 26 25 26 27 31 34 38 44 45 46 47 49 51 43 38 34 39 48 51 49 47 41 36 37 36 34 35 36 33 33 28 27 26 25 28 31 32
31 29 28 25 23 24 27 28 28 32 32 34 38 41 40 41 42 42 43 43 36 36 46 51 52 49 50 39 42 42 42 36 33 33 34 31 30 29 27 22 25 29 36
27 27 25 25 24 24 31 33 29 29 33 33 36 38 39 39 40 41 41 36 34 42 52 50 49 49 47 42 46 48 46 43 39 36 34 31 31 30 29 29 29 27 25
22 23 25 27 26 26 27 30 28 28 32 32 32 35 38 37 37 40 40 32 36 50 52 49 48 48 48 46 49 52 54 55 53 52 44 42 38 37 35 34 36 37 36
22 21 22 25 25 26 25 26 28 27 30 34 33 30 32 35 36 37 37 33 41 51 52 50 47 48 49 46 49 48 48 51 53 55 55 52 49 47 47 46 46 45 45
25 23 23 24 23 23 23 24 27 28 32 34 32 30 32 34 32 33 34 35 45 50 52 48 46 47 47 43 46 47 48 48 50 53 53 51 51 50 48 50 52 51 53

GFSSE_prec_cthk_033.txt.gz
RH
82 84 74 68 63 58 51 41 34 28 29 31 34 37 40 42 46 53 65 74 76 72 71 63 58 58 55 42 43 43 49 48 43 39 34 41 42 42 48 56 65 56 55
83 81 73 64 61 57 46 34 30 28 30 33 35 38 40 42 48 56 62 66 69 70 68 67 64 66 65 55 43 35 54 53 52 53 39 33 38 38 48 57 67 53 54
82 77 70 61 54 48 39 32 30 28 32 36 37 38 40 43 47 54 59 59 62 64 67 70 71 75 74 59 58 40 41 58 48 63 71 57 39 35 45 60 61 57 55
82 78 67 54 50 42 35 33 28 28 32 35 37 40 41 43 46 52 55 60 62 64 65 68 69 75 79 75 68 58 40 48 59 77 65 53 41 33 41 60 53 53 50
84 80 63 52 48 38 35 31 30 31 33 35 36 39 42 43 44 48 52 52 53 57 58 64 68 67 72 77 77 80 63 48 57 71 53 51 55 37 40 43 46 49 61
86 73 55 47 43 36 33 35 37 39 42 41 41 41 43 47 46 48 55 48 51 52 53 55 57 62 65 60 60 69 76 62 51 62 67 51 58 53 61 65 52 45 44
76 59 47 45 40 35 36 40 41 44 47 49 49 48 51 53 53 59 58 57 59 63 64 61 54 44 40 42 45 46 63 70 55 71 65 56 41 48 50 48 49 50 54
65 51 44 41 39 36 39 41 44 49 50 54 54 54 58 60 60 60 59 61 59 55 48 45 40 37 36 36 43 50 52 70 67 56 64 54 52 53 46 43 44 46 46
60 50 43 41 38 38 41 43 48 52 54 51 49 50 51 51 52 53 51 47 44 43 43 40 38 38 39 39 45 57 63 68 60 40 54 56 57 49 37 38 39 40 37
59 49 44 41 43 46 44 46 50 51 49 48 49 50 51 47 43 42 43 44 44 40 39 36 34 29 27 29 41 44 59 63 67 47 50 49 60 51 34 36 35 33 38
57 49 45 46 49 53 50 47 45 45 45 49 50 47 60 64 61 47 41 42 43 42 39 38 34 37 40 34 27 45 58 75 80 77 58 44 48 44 39 40 36 33 33
52 51 51 50 52 54 54 44 45 46 49 55 60 47 80 54 61 55 42 38 36 38 39 42 59 43 49 47 40 49 65 43 65 72 69 56 49 51 41 41 39 39 35
51 53 52 52 51 54 55 46 49 51 58 62 61 69 61 63 54 74 47 46 49 45 59 75 60 43 44 46 46 47 40 47 49 51 60 64 57 49 47 46 45 43 45
51 52 50 53 50 49 54 53 57 62 63 62 60 53 54 68 52 90 54 61 59 64 62 69 59 52 52 48 38 40 44 50 52 46 48 56 71 59 45 47 48 49 43
51 50 50 50 47 48 52 55 63 63 59 61 57 49 55 57 49 58 58 67 61 58 50 58 53 48 39 39 40 46 43 39 41 51 41 45 65 74 66 54 45 43 49
50 49 51 48 45 46 46 54 56 56 59 55 54 50 42 51 49 64 58 59 55 55 69 57 52 52 52 37 37 35 43 43 41 47 45 36 47 63 72 67 56 52 47
50 49 50 47 44 40 43 46 51 54 53 53 51 47 46 45 47 67 64 55 57 57 50 45 58 54 43 47 34 34 43 44 39 49 52 52 47 44 50 61 65 63 53
50 47 45 46 44 41 38 42 47 50 51 50 51 49 46 44 47 59 62 53 62 48 48 59 46 44 51 42 42 41 40 37 40 36 47 45 47 52 42 40 49 54 59
47 46 44 42 42 42 37 40 41 44 47 50 49 49 45 44 45 46 60 74 44 42 48 48 57 57 51 50 50 44 41 36 45 45 42 44 43 52 54 44 39 43 47
46 45 41 41 41 41 40 38 43 43 45 45 44 47 43 43 42 44 58 50 42 47 56 64 53 53 55 48 53 42 46 43 44 43 40 48 44 38 45 41 43 51 46
42 44 39 39 37 40 40 40 39 38 39 41 39 40 41 41 42 47 54 54 41 42 52 53 52 56 64 46 49 48 47 42 41 40 47 50 40 52 56 36 48 43 45
38 40 39 37 34 34 37 38 38 37 38 35 37 37 35 40 41 44 57 56 45 65 53 48 47 63 48 44 54 49 48 44 43 53 41 39 40 39 35 33 37 37 51
37 37 37 32 33 32 35 36 36 35 34 35 35 35 36 38 39 41 50 45 44 41 66 51 43 49 57 42 50 61 58 59 50 46 42 48 37 42 36 36 38 35 42
36 34 36 32 32 30 31 36 34 32 32 31 33 36 40 36 36 38 42 41 37 42 60 53 46 51 45 48 42 49 54 56 62 62 56 52 48 48 45 54 48 44 42
33 34 33 29 28 27 28 32 32 31 30 33 36 35 34 42 36 37 38 39 35 37 49 52 49 41 46 51 51 47 45 47 53 57 57 56 53 53 56 44 58 58 52
29 33 32 32 27 28 27 26 27 25 28 31 35 41 41 38 38 34 36 34 38 37 48 46 46 43 42 45 47 48 51 52 54 53 54 54 55 57 55 55 50 52 57

GFSSE_prec_cthk_036.txt.gz
RH
79 69 59 59 53 47 43 37 31 30 30 33 35 39 40 44 50 60 67 68 66 60 58 57 58 60 43 42 39 46 49 40 39 35 33 40 40 47 50 56 71 52 54
72 60 56 54 50 45 39 30 28 28 31 32 37 40 41 47 52 57 62 64 65 65 63 61 64 63 54 43 32 53 51 49 50 41 34 39 42 42 54 63 66 52 61
66 58 56 55 49 42 34 29 28 29 31 33 36 40 42 43 49 53 56 58 60 63 64 67 71 73 63 55 43 38 52 52 73 78 56 46 38 42 56 67 65 56 58
61 59 54 51 45 36 33 28 28 31 33 34 39 41 41 43 49 52 54 57 58 58 61 63 68 73 75 73 72 49 49 61 74 59 49 45 35 41 58 60 65 55 53
65 62 49 43 39 38 31 28 28 31 34 35 37 39 41 40 47 48 48 50 51 53 57 59 59 65 71 65 70 72 59 53 65 52 49 52 38 34 54 50 49 52 58
64 60 45 40 36 34 31 29 30 34 36 38 39 41 43 41 45 46 45 45 46 47 48 52 54 48 45 48 52 67 66 54 57 75 50 46 44 49 49 49 46 45 41
60 57 44 41 35 32 36 36 38 41 42 42 42 45 45 44 49 48 49 52 55 55 48 40 34 33 34 40 42 48 66 59 66 62 51 46 47 54 56 56 45 45 48
61 50 43 39 35 35 38 39 44 46 48 47 48 52 54 55 55 54 54 49 44 39 37 36 37 35 34 39 49 60 57 61 61 62 56 48 48 43 46 46 50 50 43
56 46 39 37 36 37 38 44 47 49 51 50 50 52 52 52 50 45 41 38 37 36 35 36 30 30 27 38 51 60 65 59 43 53 53 51 50 40 37 38 38 38 39
51 43 40 38 37 38 41 47 51 49 47 45 49 50 47 42 43 41 40 38 36 35 34 31 34 36 33 38 46 56 61 60 45 52 48 54 58 35 35 36 32 37 35
50 44 42 40 41 45 45 47 48 46 44 47 51 51 58 53 49 43 41 37 37 36 37 42 42 40 42 41 51 63 63 73 65 63 49 43 42 35 38 37 32 32 35
51 42 43 45 46 47 47 43 42 41 41 51 62 52 64 54 54 49 38 37 36 39 44 57 44 59 43 51 51 52 48 48 62 61 62 52 46 44 41 39 41 36 37
50 44 45 46 48 47 48 38 40 44 48 62 71 66 85 73 74 52 45 51 49 57 62 55 55 41 46 47 46 44 46 54 51 53 62 59 50 45 45 44 44 45 42
47 47 45 44 46 49 48 41 45 50 57 57 53 70 80 81 69 61 53 58 70 67 73 57 49 47 48 48 38 51 49 52 48 52 54 56 62 51 45 43 45 45 46
49 53 48 44 40 48 53 45 53 61 56 61 51 40 77 49 58 78 62 64 53 62 83 56 49 57 35 38 39 41 41 50 47 47 48 46 66 69 60 55 46 46 51
52 48 47 44 39 42 48 51 63 55 58 62 56 42 44 59 70 57 57 53 50 61 60 52 50 53 46 33 34 37 47 40 38 48 45 45 48 65 73 65 54 51 50
46 45 45 41 39 37 43 47 52 51 54 48 55 48 44 50 50 72 57 49 62 42 45 43 60 57 50 39 36 41 38 40 39 47 52 54 54 50 50 59 61 60 56
46 45 42 41 37 36 38 43 43 46 49 50 48 44 42 42 44 52 60 59 51 50 39 54 40 54 51 47 39 43 43 36 35 42 51 44 47 51 45 42 46 51 54
47 43 39 39 38 34 36 39 39 42 45 46 47 45 42 39 39 44 70 66 51 41 44 50 52 60 53 52 58 45 37 40 46 40 40 44 41 43 45 43 38 38 42
45 41 38 38 40 36 34 37 39 39 41 42 43 44 38 38 36 41 52 51 46 39 49 51 51 49 57 54 54 53 45 42 51 43 46 46 44 38 45 41 36 39 41
41 39 37 35 37 36 35 34 37 36 41 40 39 40 34 33 34 36 60 64 45 45 50 46 47 59 54 40 41 40 40 37 35 51 47 44 41 41 46 36 33 40 36
37 37 35 34 35 35 33 33 33 37 36 37 35 36 33 31 34 42 51 50 50 52 51 44 44 52 45 47 51 49 49 46 48 44 41 42 45 40 36 37 39 37 40
36 33 33 32 32 32 32 34 35 36 34 35 33 31 32 31 32 44 50 49 50 46 62 49 35 48 49 46 55 60 61 57 54 55 48 47 44 43 38 42 41 36 39
32 32 29 31 30 30 30 32 33 31 29 29 29 30 31 29 28 35 36 37 40 40 49 48 37 45 45 37 45 51 52 50 47 51 54 55 52 51 45 50 48 44 46
31 31 28 28 28 28 28 30 30 30 27 27 30 30 31 29 31 29 31 31 36 34 52 48 42 39 40 45 41 43 47 49 53 55 56 53 53 51 51 47 49 52 50
33 32 32 29 27 27 27 27 30 28 26 27 28 31 30 31 35 36 31 32 35 35 42 45 42 38 38 43 45 44 45 48 54 55 59 58 52 50 49 48 47 44 49

GFSSE_prec_cthk_042.txt.gz
RH
68 65 53 51 46 39 36 35 33 32 34 37 39 45 50 52 56 61 56 53 54 55 59 54 41 34 37 46 45 40 42 44 39 37 53 45 47 51 55 56 53 58 56
62 59 53 49 41 35 34 32 31 30 33 37 40 44 51 60 66 65 64 63 59 60 64 57 53 39 41 43 48 48 46 46 40 36 43 46 49 53 59 57 56 59 56
57 55 50 42 36 32 31 28 29 31 35 35 37 44 50 55 59 61 64 61 62 64 68 69 65 66 62 55 51 63 62 61 58 39 47 44 52 58 82 62 54 57 52
54 51 44 40 33 29 27 27 28 32 38 36 38 44 49 53 56 56 56 56 60 63 64 66 66 63 60 70 67 64 62 52 44 38 40 40 52 68 71 67 56 51 49
51 44 40 38 29 26 25 27 28 31 34 34 36 42 47 49 51 52 53 53 51 50 50 48 46 46 49 60 68 57 71 56 40 40 38 40 58 65 64 56 51 51 44
46 40 40 35 27 26 26 28 30 32 33 34 36 45 43 45 44 44 44 44 44 42 36 31 34 39 44 51 71 62 69 48 39 38 38 39 48 53 48 49 42 44 50
44 41 38 31 27 25 26 30 33 34 36 37 37 42 44 45 45 46 44 43 36 34 33 31 36 44 51 49 67 66 74 54 48 43 44 50 54 50 48 45 43 52 49
43 41 34 32 27 25 27 32 36 37 40 40 40 43 47 49 48 41 38 33 31 28 25 27 38 50 58 50 63 60 66 56 52 48 46 44 46 46 44 45 43 42 45
43 37 32 30 29 29 34 35 36 38 42 43 47 46 46 44 36 34 32 31 29 30 26 26 41 51 60 64 64 51 57 57 51 49 48 39 36 36 36 36 38 39 41
41 35 30 31 33 36 38 39 40 43 47 46 43 40 37 33 33 31 32 32 35 40 36 34 38 52 55 65 60 52 48 49 53 53 50 43 34 35 35 35 35 36 37
40 34 31 34 36 40 41 41 42 42 42 39 35 34 33 32 30 29 30 37 51 48 49 62 41 48 55 64 67 60 60 53 53 54 46 37 34 38 34 37 37 38 40
38 34 32 35 38 41 41 39 38 40 44 47 54 42 35 33 30 29 34 46 55 55 50 46 46 46 56 49 56 60 65 67 59 60 51 45 39 38 37 37 39 42 46
36 34 33 35 37 39 40 37 40 45 52 55 52 46 45 39 34 41 46 62 68 69 52 48 43 41 41 45 41 50 60 68 64 64 53 48 41 39 37 38 35 40 44
36 33 33 35 36 37 37 34 40 58 66 61 61 60 54 54 52 52 54 61 71 65 52 48 44 36 39 39 44 37 51 55 57 59 54 56 48 40 38 39 38 43 47
36 32 32 33 33 35 34 33 39 50 57 59 65 57 52 50 50 51 50 51 61 65 54 52 53 41 39 39 34 36 38 43 52 55 54 62 58 48 45 41 43 43 45
37 33 31 32 32 33 36 38 42 45 46 52 58 54 53 54 53 46 49 51 46 46 42 53 48 43 40 39 37 40 35 39 45 43 46 51 58 63 58 47 42 39 40
39 33 30 31 34 34 39 42 44 45 45 42 46 45 51 60 64 57 54 51 42 43 47 49 49 44 40 37 36 39 38 35 42 44 46 40 45 45 48 57 52 47 41
40 36 36 34 35 38 42 44 42 46 48 42 40 40 41 52 53 57 58 55 43 48 52 54 57 50 48 44 42 36 35 37 40 39 44 41 42 43 41 45 50 54 56
42 37 38 36 35 40 41 42 43 46 44 38 38 41 41 41 43 53 57 57 44 49 55 57 63 56 49 53 44 44 41 35 43 37 40 39 39 39 38 43 47 42 45
46 40 38 38 37 38 41 39 42 43 42 41 40 42 41 40 41 52 56 53 48 51 53 53 57 53 53 48 45 45 41 40 43 40 41 36 36 37 38 38 33 37 41
43 41 38 37 37 37 38 38 38 39 37 37 38 38 39 40 44 46 48 52 51 53 51 50 53 53 44 43 47 43 46 45 38 40 40 37 32 32 28 34 36 33 37
40 41 38 36 35 35 35 32 31 34 33 35 35 36 35 38 41 43 45 54 54 53 48 43 46 47 48 44 43 41 42 45 46 49 47 46 42 41 39 38 38 37 36
37 37 37 36 34 33 32 31 29 29 32 33 32 32 32 35 42 38 41 48 51 52 49 45 42 42 40 45 46 44 45 46 48 49 48 49 50 48 44 44 44 43 40
36 36 35 37 36 33 32 30 28 24 25 25 27 28 30 33 37 33 34 39 44 48 49 46 38 42 38 41 42 44 46 45 46 49 48 49 49 49 46 46 45 43 42
39 37 34 35 35 34 31 30 26 24 23 24 27 28 29 30 31 29 30 33 37 41 44 44 38 39 37 40 45 49 49 46 47 48 49 47 46 46 45 44 42 40 38
35 35 36 34 34 34 31 29 26 23 23 22 24 25 28 29 29 29 30 32 32 35 38 41 40 35 39 37 44 48 50 49 46 45 45 45 44 40 39 39 38 37 39

GFSSE_prec_cthk_045.txt.gz
RH
78 69 53 52 44 42 36 34 35 37 39 42 46 47 54 63 60 57 54 56 56 59 52 42 36 38 44 47 42 42 49 47 48 55 59 47 47 52 50 50 54 55 53
63 57 51 48 40 38 35 35 34 36 38 41 49 58 64 66 63 60 58 58 61 65 59 54 45 47 44 43 45 46 48 42 38 43 54 51 55 54 54 55 57 58 52
56 53 50 43 36 37 35 35 34 37 38 41 47 53 66 64 61 64 60 62 64 67 64 63 63 66 65 56 56 55 51 58 37 42 53 49 56 71 60 57 55 53 48
52 52 44 38 36 33 31 33 35 35 38 42 48 52 56 59 59 61 57 60 63 64 70 65 61 60 67 75 67 68 54 46 36 46 46 51 65 79 70 55 53 48 47
51 49 40 36 34 29 28 31 36 35 37 42 48 52 56 55 55 55 55 54 53 51 51 46 49 47 56 71 61 69 47 39 36 39 41 53 65 67 62 53 49 46 44
49 44 38 34 30 27 27 30 34 33 35 41 44 48 49 49 48 45 44 44 42 36 33 38 47 53 60 69 65 60 49 40 39 36 43 53 60 59 49 49 42 46 47
43 39 35 31 28 26 28 31 32 34 34 41 45 45 44 44 42 42 42 35 33 30 34 43 53 57 54 69 70 59 46 39 37 40 44 49 52 49 49 41 51 47 45
40 37 33 29 27 28 32 34 34 37 37 42 43 46 47 47 44 38 31 28 25 23 34 49 62 59 57 68 66 63 53 47 42 42 46 50 50 44 43 42 43 43 45
40 37 30 28 26 30 34 35 37 41 41 43 47 50 49 38 35 33 27 28 25 24 33 50 60 58 60 61 60 67 54 46 45 44 37 38 38 39 38 42 42 43 45
40 34 31 28 27 32 35 35 40 43 46 47 46 44 38 33 32 35 29 37 35 35 34 42 60 67 64 53 48 58 53 53 53 50 40 34 37 37 39 39 40 46 44
40 33 29 28 34 37 37 38 43 47 45 42 38 35 34 31 30 30 37 48 43 51 55 48 54 61 64 63 55 51 50 54 56 50 38 37 40 38 39 40 44 44 51
37 34 31 34 39 40 41 42 43 41 39 37 36 36 35 34 33 38 44 55 54 47 46 44 45 51 50 58 60 65 57 54 56 50 45 39 40 39 40 43 42 46 48
34 33 34 37 40 40 40 38 41 45 50 51 44 39 36 35 40 48 63 61 63 50 47 47 42 40 42 43 52 59 65 65 62 52 51 43 41 40 38 36 42 46 50
33 32 34 37 38 40 39 41 49 53 56 53 49 51 50 46 52 53 60 66 64 51 47 46 39 43 40 44 41 48 58 64 61 55 54 51 39 39 40 39 42 45 46
33 32 33 34 35 37 36 43 58 64 62 62 59 52 49 50 55 54 55 56 58 52 56 55 51 41 39 38 40 41 45 51 58 56 59 62 47 45 43 41 41 41 41
33 32 33 32 34 35 34 39 52 59 64 63 56 52 51 58 54 52 51 49 42 43 49 49 49 43 40 38 40 36 36 44 51 55 57 60 63 61 52 42 36 37 38
32 30 31 30 32 34 36 40 45 49 53 58 55 52 59 65 57 57 52 43 41 44 44 49 46 43 40 36 40 35 33 44 47 49 49 52 52 56 62 56 47 43 41
31 30 30 30 31 35 39 42 44 45 47 46 47 48 58 58 56 58 57 48 43 51 53 55 51 50 47 38 37 34 38 40 40 45 43 42 42 43 46 48 51 55 53
31 31 31 28 31 36 40 43 43 47 49 43 40 42 45 49 52 58 55 55 47 53 54 65 54 47 52 43 38 36 36 40 38 41 41 39 40 38 38 43 45 43 46
37 33 29 29 34 38 40 40 42 43 45 40 39 41 42 44 50 48 50 52 47 52 53 55 54 46 47 46 42 42 39 41 42 41 39 37 36 35 34 31 32 38 43
44 35 34 35 35 40 43 41 42 43 43 42 38 38 39 44 45 41 48 52 51 52 51 55 52 45 45 46 43 42 41 45 39 42 44 39 36 31 31 31 32 31 34
41 41 36 35 36 38 41 39 38 40 39 39 38 37 37 41 42 43 47 58 53 49 45 47 49 46 43 43 44 44 45 44 44 44 48 46 43 40 38 39 37 31 33
34 38 37 35 34 36 38 39 40 39 38 37 35 34 33 40 39 38 41 49 54 48 43 41 42 43 45 44 45 45 47 47 48 49 50 49 46 46 44 43 41 37 36
28 34 36 34 35 35 36 38 38 33 30 32 32 31 32 36 34 34 38 41 50 53 42 44 39 40 41 41 43 43 44 45 47 48 48 47 47 46 44 44 42 40 38
27 29 34 36 36 36 34 36 36 32 28 29 30 29 30 32 32 29 33 36 40 44 46 44 38 41 40 43 45 45 44 46 46 47 46 43 41 41 40 39 39 39 37
28 30 31 35 36 36 36 36 35 32 27 25 25 25 27 28 27 25 28 31 35 40 42 41 41 39 42 42 45 46 46 44 41 40 40 38 36 36 36 37 38 40 41

GFSSE_prec_cthk_048.txt.gz
RH
80 72 61 50 45 38 32 33 35 35 38 43 46 53 58 52 52 53 56 57 54 48 39 38 37 38 44 42 42 49 47 60 53 55 52 49 48 49 49 53 53 54 50
70 59 52 46 44 34 32 34 34 36 41 46 52 62 63 61 59 55 55 58 62 61 55 44 47 46 42 43 45 47 46 43 46 51 51 47 53 50 54 54 57 50 49
60 53 51 42 36 33 31 31 32 35 40 48 58 64 62 66 66 58 63 60 65 62 58 60 65 64 60 53 55 49 58 41 37 50 48 53 59 53 56 55 51 47 47
53 50 44 40 34 31 32 35 35 37 42 45 59 66 67 66 61 56 57 59 74 79 66 58 55 58 68 62 68 52 48 36 37 46 48 58 71 69 57 53 48 48 46
49 47 39 40 32 31 35 38 34 40 43 50 55 59 58 59 58 53 51 53 59 49 44 42 48 56 67 63 69 46 40 34 42 45 51 60 73 68 57 50 47 46 47
49 43 38 39 31 30 36 38 34 40 45 50 57 55 57 52 48 47 47 45 37 32 36 44 49 58 64 69 65 48 42 38 40 44 51 57 62 57 48 47 46 46 47
46 40 38 35 28 29 35 34 34 39 47 47 51 47 46 46 44 43 37 30 30 37 46 56 60 58 68 65 58 39 39 39 39 43 49 54 53 50 48 49 49 47 47
42 38 37 30 28 29 33 33 34 38 49 49 48 45 46 48 42 32 28 26 26 38 51 57 58 58 70 65 57 50 41 39 42 48 51 50 52 44 45 45 47 47 47
40 36 33 29 30 32 34 34 37 39 44 46 50 49 43 35 30 28 28 24 32 41 54 57 54 61 65 69 56 48 45 44 42 39 42 43 44 43 45 43 44 46 44
38 34 31 27 31 33 34 38 42 41 42 48 49 43 33 35 31 39 47 38 39 47 53 62 63 57 54 65 60 59 54 51 46 39 38 38 41 42 43 42 47 46 49
39 32 30 27 32 33 36 40 42 45 47 45 43 37 32 31 29 46 51 44 55 56 47 54 62 59 52 55 55 55 55 54 51 38 36 41 37 39 40 42 44 48 48
37 32 29 30 35 35 37 40 46 46 43 38 36 35 33 31 37 45 59 58 50 47 41 42 49 55 63 65 60 56 53 52 47 43 39 42 41 41 40 44 45 46 46
34 31 29 36 38 40 42 43 43 41 38 37 35 35 35 39 49 65 65 64 55 47 45 39 35 35 49 59 63 66 62 59 51 49 42 42 37 37 36 41 45 47 46
32 30 33 38 39 40 41 42 47 46 53 45 41 38 41 51 51 62 64 71 59 50 48 41 36 36 42 43 52 65 64 62 54 51 47 40 37 38 37 42 45 43 42
31 29 34 36 38 39 42 47 53 55 56 47 51 50 49 51 53 58 59 62 60 54 58 53 38 38 37 41 45 51 63 63 55 54 59 44 42 39 36 39 38 37 36
31 29 31 33 36 38 45 51 65 62 60 56 52 49 53 53 60 56 59 54 50 49 49 51 43 38 37 40 36 38 46 54 56 58 63 60 57 51 41 36 35 37 38
30 30 30 31 32 36 40 51 63 66 63 59 57 55 64 59 57 56 54 47 51 49 50 50 47 40 37 38 36 34 42 46 52 54 57 58 55 59 57 49 45 39 40
31 30 29 29 30 33 37 42 49 56 59 56 54 58 64 61 60 59 57 48 52 56 59 54 49 49 40 41 38 36 42 43 46 45 42 43 44 52 50 55 59 58 55
30 30 29 29 29 32 36 39 44 48 47 48 49 52 55 55 58 60 62 57 51 56 60 60 51 49 46 40 40 41 40 41 44 41 38 38 38 38 40 44 43 44 45
32 30 28 28 30 33 36 40 42 45 47 46 43 45 47 54 56 52 55 55 49 52 55 52 48 49 49 43 41 40 41 43 42 39 35 33 29 31 32 31 37 41 40
36 30 28 28 30 33 36 37 41 41 44 44 42 42 46 48 45 47 50 55 53 52 52 51 49 47 48 42 40 42 42 48 42 39 38 35 32 33 31 30 30 30 30
38 31 29 29 30 34 34 35 39 41 42 41 42 40 45 45 46 47 53 51 54 49 56 51 48 45 46 43 40 38 39 40 42 41 38 40 39 37 36 34 30 31 31
39 34 31 27 28 35 37 38 39 41 41 41 39 39 42 42 40 43 50 52 52 55 50 47 45 47 47 47 45 44 44 45 46 47 45 44 42 41 40 39 36 34 32
35 39 35 31 29 35 39 40 40 39 37 34 36 35 38 40 37 39 41 50 51 53 45 45 40 42 44 42 43 44 44 46 47 46 46 44 43 42 40 39 36 35 35
32 36 39 35 32 32 35 38 40 39 37 34 35 34 35 37 34 36 38 42 47 46 52 44 42 39 42 41 42 43 45 46 47 46 43 41 39 37 35 34 34 35 35
29 31 36 36 34 32 34 36 36 36 34 34 32 31 30 32 31 30 34 36 39 41 44 45 42 38 41 40 41 42 43 44 41 40 38 37 34 33 34 35 37 39 40